Location: Kawakawa
(35.3830°S, 174.0670°E)
Time: 15:54:40
(UTC+13:00)

Explorer 7 - Pass Details

Date: 11 December 2019
Orbit: 485 x 679 km, 50.3° (Epoch: 17 January)

Event Time Altitude Azimuth Distance (km) Brightness Sun altitude
Rises 04:35:52 0° 311° (NW) 2,631 - -15.0°
Reaches altitude 10° 04:38:06 10° 311° (NW) 1,726 - -14.7°
Exits shadow 04:39:56 26° 310° (NW) 1,012 7.5 -14.4°
Maximum altitude 04:41:59 89° 233° (SW) 505 6.6 -14.1°
Drops below altitude 10° 04:45:49 10° 130° (SE) 1,694 10.8 -13.5°
Sets 04:47:59 0° 130° (SE) 2,577 12.3 -13.2°
